loading
DOY 175 | 2024-06-23T11:06:11Z

STARLINK-31956, 59930

Orbit data source: Space-Track

STARLINK-31956, 59930 is a payload satellite owned by SpaceX/Seattle (US) in LEO that was launched on Sat, 01 Jun 2024 UTC via a Falcon 9 launch vehicle from the Air Force Eastern Test Range (AFETR). Payloads include a variety of satellites, spacecraft, and rockets equipped with specific instruments for various scientific and technological missions. These include communications satellites like Starlink; space stations such as the ISS; scientific satellites like the Hubble; Earth observation satellites from companies like Planet Labs, Umbra, and HawkEye 360; GPS; miniature CubeSats for education and research; and military/defense satellites.

Loading next visibility...
Loading greatness...
STARLINK-31956 details
NORAD ID59930
COSPAR ID
2024-106J
Orbit
LEO
Last TLE update13 hours ago
Origin
Flag of USSpaceX/Seattle (US)
ManufacturerSpaceX/Seattle
BusStarlink V2M
MotorUnknown
Mass750 kg wet, ~700 kg dry
Launch date (UTC)
2024-06-01 (3 weeks ago)
Launch vehicle
Falcon 9
Launch site
Air Force Eastern Test Range (AFETR)
Object type
Payload
Rocket body
Debris
Radar Cross SectionLarge (>1 m²)
Predictive object data (real-time)
Latitude-2.0463°
Longitude45.39817°
Altitude380.029 km
Speed7.684 km/s
Apparent Right ascension16h 02m 14s
Apparent Declination-41° 16' 29"
Sunlit
Object is in full shadow
Predictive observer data (real-time)
Local Sidereal Time22:14:09
Azimuth237.351° WSW
Elevation-26.952°
Doppler factor1
Orbital elements
Apogee377.506 km
Perigee375.6 km
Semi-major axis6,754.69 km
Eccentricity0.0001411
Inclination42.9997°
RAAN292.4156°
Arg. of periapsis287.8287°
True anomaly232.55216°
Mean anomaly232.565°
Mean motion3.90962 °/min
BSTAR-0.019692
Period92.08 mins
Definitive object data (Epoch: 2024-06-22T22:00:00.999Z)
Latitude13.26095°
Longitude-143.71687°
Altitude374.17 km
Speed7.688 km/s
True Right ascension06h 31m 26s
True Declination13° 10' 48"
Sunlit
Object was in daylight at TLE epoch
TLE from 13 hours ago
0 STARLINK-31956
1 59930U 24106J   24174.91667824 -.01747150  00000-0 -19692-1 0  9995
2 59930  42.9997 292.4156 0001411 287.8287 232.5650 15.64534861  4613
Epoch: 2024-06-22T22:00Z
No data available

STARLINK-31956 Visibility forecast

Observer location: 39.9160978°, -105.1181434, 0m alt.

STARLINK-31956 is not visible in the next 10 days
Span
Click to sort rows by Start time (UTC) header in descending order
Start Az.
Max El. time (UTC)
Max El. Az.
Max El.
End time (UTC)
End Az.